| time (UTC) | temp F | wind direction | speed knots | gust knots | rain 1hr in | rain 24hr in | rain mn in | humidity % | barometer mb |
| 20260504033504 | 52 | 0 | 0.0 | 0.0 | 0.00 | 0.00 | 0.00 | 99 | 1019.3 |
| 20260504033005 | 52 | 68 | 1.7 | 1.7 | 0.00 | 0.00 | 0.00 | 99 | 1019.3 |
| 20260504032504 | 52 | 68 | 1.7 | 1.7 | 0.00 | 0.00 | 0.00 | 99 | 1019.3 |
| 20260504032004 | 52 | 68 | 1.7 | 1.7 | 0.00 | 0.00 | 0.00 | 99 | 1019.3 |
| 20260504031505 | 52 | 68 | 1.7 | 1.7 | 0.00 | 0.00 | 0.00 | 99 | 1019.3 |
| 20260504031004 | 52 | 68 | 1.7 | 1.7 | 0.00 | 0.00 | 0.00 | 99 | 1019.3 |
| 20260504030504 | 52 | 68 | 1.7 | 1.7 | 0.00 | 0.00 | 0.00 | 99 | 1019.3 |
| 20260504030006 | 52 | 68 | 1.7 | 1.7 | 0.00 | 0.00 | 0.00 | 99 | 1019.3 |
| 20260504025504 | 52 | 74 | 1.7 | 2.6 | 0.00 | 0.00 | 0.00 | 99 | 1019.3 |
| 20260504025005 | 52 | 76 | 0.9 | 2.6 | 0.00 | 0.00 | 0.00 | 99 | 1019.3 |
| 20260504024504 | 52 | 0 | 0.0 | 0.0 | 0.00 | 0.00 | 0.00 | 99 | 1019.3 |
| 20260504024004 | 52 | 90 | 0.0 | 0.9 | 0.00 | 0.00 | 0.00 | 99 | 1019.3 |
| 20260504023504 | 53 | 90 | 0.0 | 0.9 | 0.00 | 0.00 | 0.00 | 99 | 1019.3 |
| 20260503202504 | 54 | 0 | 0.0 | 0.0 | 0.00 | 0.00 | 0.00 | 100 | 1018.3 |
| 20260503202004 | 55 | 0 | 0.0 | 0.0 | 0.00 | 0.00 | 0.00 | 100 | 1018.3 |
| 20260503201504 | 55 | 0 | 0.0 | 0.0 | 0.00 | 0.00 | 0.00 | 99 | 1018.3 |
| 20260503201005 | 55 | 0 | 0.0 | 0.0 | 0.00 | 0.00 | 0.00 | 99 | 1018.3 |
| 20260503200504 | 55 | 0 | 0.0 | 0.0 | 0.00 | 0.00 | 0.00 | 99 | 1018.3 |
| 20260503200006 | 55 | 0 | 0.0 | 0.0 | 0.00 | 0.00 | 0.00 | 100 | 1018.3 |
| 20260503195504 | 55 | 158 | 0.0 | 0.9 | 0.00 | 0.00 | 0.00 | 100 | 1018.3 |
| 20260503195005 | 55 | 158 | 0.9 | 1.7 | 0.00 | 0.00 | 0.00 | 100 | 1018.3 |
| 20260503194504 | 55 | 177 | 1.7 | 1.7 | 0.00 | 0.00 | 0.00 | 100 | 1018.3 |
| 20260503194004 | 56 | 193 | 1.7 | 1.7 | 0.00 | 0.00 | 0.00 | 100 | 1018.3 |
| 20260503193504 | 56 | 203 | 0.9 | 1.7 | 0.00 | 0.00 | 0.00 | 97 | 1018.3 |
| 20260503193004 | 56 | 203 | 0.0 | 0.9 | 0.00 | 0.00 | 0.00 | 97 | 1018.3 |
| 20260503192503 | 56 | 0 | 0.0 | 0.0 | 0.00 | 0.00 | 0.00 | 97 | 1018.3 |
| 20260503192004 | 56 | 0 | 0.0 | 0.0 | 0.00 | 0.00 | 0.00 | 97 | 1018.3 |
| 20260503191504 | 56 | 248 | 0.0 | 0.9 | 0.00 | 0.00 | 0.00 | 100 | 1018.3 |
| 20260503191005 | 56 | 248 | 0.0 | 0.9 | 0.00 | 0.00 | 0.00 | 97 | 1018.3 |
| 20260503190504 | 56 | 248 | 0.0 | 0.9 | 0.00 | 0.00 | 0.00 | 97 | 1018.3 |
| 20260503190006 | 56 | 203 | 0.9 | 1.7 | 0.00 | 0.00 | 0.00 | 97 | 1018.3 |
| 20260503185504 | 56 | 203 | 0.9 | 1.7 | 0.00 | 0.00 | 0.00 | 97 | 1018.3 |
| 20260503185004 | 56 | 203 | 0.9 | 1.7 | 0.00 | 0.00 | 0.00 | 97 | 1018.3 |
| 20260503184504 | 56 | 203 | 0.9 | 1.7 | 0.00 | 0.00 | 0.00 | 97 | 1018.3 |
| 20260503184005 | 57 | 225 | 0.0 | 1.7 | 0.00 | 0.00 | 0.00 | 97 | 1018.3 |
| 20260503183506 | 57 | 248 | 0.9 | 1.7 | 0.00 | 0.00 | 0.00 | 97 | 1018.3 |
| 20260503183005 | 57 | 248 | 1.7 | 2.6 | 0.00 | 0.00 | 0.00 | 97 | 1018.3 |
| 20260503182505 | 57 | 257 | 1.7 | 2.6 | 0.00 | 0.00 | 0.00 | 97 | 1018.3 |
| 20260503182006 | 57 | 282 | 0.9 | 1.7 | 0.00 | 0.00 | 0.00 | 96 | 1018.3 |
| 20260503181506 | 58 | 296 | 0.9 | 1.7 | 0.00 | 0.00 | 0.00 | 96 | 1018.3 |
| 20260503181006 | 58 | 300 | 0.9 | 1.7 | 0.00 | 0.00 | 0.00 | 96 | 1018.3 |
| 20260503180506 | 58 | 337 | 0.9 | 0.9 | 0.00 | 0.00 | 0.00 | 96 | 1018.3 |
| 20260503180007 | 58 | 0 | 0.0 | 0.0 | 0.00 | 0.00 | 0.00 | 96 | 1017.3 |
| 20260503175505 | 58 | 0 | 0.0 | 0.0 | 0.00 | 0.00 | 0.00 | 96 | 1017.3 |
| 20260503175005 | 58 | 0 | 0.0 | 0.0 | 0.00 | 0.00 | 0.00 | 96 | 1017.3 |
| 20260503174505 | 58 | 0 | 0.0 | 0.0 | 0.00 | 0.00 | 0.00 | 95 | 1017.3 |
| 20260503174005 | 59 | 0 | 0.0 | 0.0 | 0.00 | 0.00 | 0.00 | 96 | 1017.3 |
| 20260503173505 | 59 | 0 | 0.0 | 0.0 | 0.00 | 0.00 | 0.00 | 96 | 1017.3 |
| 20260503173006 | 59 | 0 | 0.0 | 0.0 | 0.00 | 0.00 | 0.00 | 96 | 1017.3 |
| 20260503172506 | 58 | 0 | 0.0 | 0.0 | 0.00 | 0.00 | 0.00 | 96 | 1017.3 |
| 20260503172006 | 58 | 0 | 0.0 | 0.0 | 0.00 | 0.00 | 0.00 | 97 | 1017.3 |
| 20260503171505 | 57 | 0 | 0.0 | 0.0 | 0.00 | 0.00 | 0.00 | 97 | 1017.3 |
| 20260503171007 | 57 | 0 | 0.0 | 0.0 | 0.00 | 0.00 | 0.00 | 97 | 1017.3 |
| 20260503170505 | 57 | 39 | 0.0 | 1.7 | 0.00 | 0.00 | 0.00 | 97 | 1017.3 |
| 20260503151006 | 56 | 257 | 3.5 | 3.5 | 0.00 | 0.00 | 0.00 | 96 | 1017.3 |
| 20260503150505 | 57 | 274 | 2.6 | 3.5 | 0.00 | 0.00 | 0.00 | 95 | 1017.3 |
| 20260503131005 | 60 | 308 | 2.6 | 3.5 | 0.00 | 0.00 | 0.00 | 88 | 1017.3 |
| 20260503130505 | 60 | 293 | 2.6 | 2.6 | 0.00 | 0.00 | 0.00 | 89 | 1017.3 |
| 20260503110505 | 61 | 123 | 3.5 | 4.3 | 0.00 | 0.00 | 0.00 | 82 | 1018.3 |
| 20260503090505 | 58 | 112 | 1.7 | 1.7 | 0.00 | 0.00 | 0.00 | 93 | 1018.3 |
| 20260503081505 | 56 | 85 | 2.6 | 3.5 | 0.00 | 0.00 | 0.00 | 100 | 1018.3 |
| 20260503081004 | 56 | 84 | 1.7 | 3.5 | 0.00 | 0.00 | 0.00 | 100 | 1018.3 |
| 20260503080504 | 56 | 97 | 1.7 | 2.6 | 0.00 | 0.00 | 0.00 | 99 | 1018.3 |
| 20260503072504 | 55 | 97 | 2.6 | 4.3 | 0.00 | 0.00 | 0.00 | 99 | 1018.3 |
| 20260503072005 | 55 | 93 | 2.6 | 3.5 | 0.00 | 0.00 | 0.00 | 99 | 1018.3 |
| 20260503071504 | 55 | 93 | 2.6 | 3.5 | 0.00 | 0.00 | 0.00 | 99 | 1018.3 |
| 20260503071005 | 55 | 90 | 2.6 | 3.5 | 0.00 | 0.00 | 0.00 | 99 | 1018.3 |
| 20260503070504 | 55 | 83 | 2.6 | 3.5 | 0.00 | 0.00 | 0.00 | 99 | 1018.3 |
| 20260503055004 | 54 | 102 | 1.7 | 2.6 | 0.00 | 0.00 | 0.00 | 99 | 1017.3 |
| 20260503054504 | 53 | 94 | 1.7 | 2.6 | 0.00 | 0.00 | 0.00 | 99 | 1017.3 |
| 20260503054004 | 53 | 90 | 2.6 | 2.6 | 0.00 | 0.00 | 0.00 | 99 | 1017.3 |
| 20260503053504 | 53 | 95 | 2.6 | 2.6 | 0.00 | 0.00 | 0.00 | 99 | 1017.3 |
| 20260503053004 | 53 | 84 | 2.6 | 2.6 | 0.00 | 0.00 | 0.00 | 99 | 1017.3 |
| 20260503052504 | 54 | 79 | 1.7 | 2.6 | 0.00 | 0.00 | 0.00 | 99 | 1017.3 |
| 20260503052004 | 54 | 85 | 1.7 | 2.6 | 0.00 | 0.00 | 0.00 | 99 | 1017.3 |
| 20260503051504 | 54 | 82 | 1.7 | 2.6 | 0.00 | 0.00 | 0.00 | 99 | 1017.3 |
| 20260503051004 | 54 | 77 | 2.6 | 2.6 | 0.00 | 0.00 | 0.00 | 99 | 1017.3 |
| 20260503050504 | 54 | 83 | 2.6 | 3.5 | 0.00 | 0.00 | 0.00 | 99 | 1017.3 |
| 20260503050006 | 54 | 94 | 1.7 | 3.5 | 0.00 | 0.00 | 0.00 | 99 | 1017.3 |
| 20260503045504 | 54 | 100 | 0.9 | 1.7 | 0.00 | 0.00 | 0.00 | 99 | 1017.3 |
| 20260503045004 | 54 | 91 | 0.9 | 1.7 | 0.00 | 0.00 | 0.00 | 99 | 1017.3 |
| 20260503044505 | 54 | 86 | 1.7 | 1.7 | 0.00 | 0.00 | 0.00 | 99 | 1017.3 |
| 20260503044005 | 54 | 88 | 0.9 | 1.7 | 0.00 | 0.00 | 0.00 | 99 | 1017.3 |
| 20260503043504 | 54 | 84 | 0.9 | 1.7 | 0.00 | 0.00 | 0.00 | 99 | 1017.3 |
| 20260503043004 | 54 | 78 | 0.9 | 1.7 | 0.00 | 0.00 | 0.00 | 99 | 1017.3 |
| 20260503042504 | 54 | 81 | 1.7 | 1.7 | 0.00 | 0.00 | 0.00 | 99 | 1017.3 |
| 20260503042004 | 54 | 87 | 1.7 | 2.6 | 0.00 | 0.00 | 0.00 | 99 | 1017.3 |
| 20260503041504 | 54 | 91 | 1.7 | 2.6 | 0.00 | 0.00 | 0.00 | 99 | 1018.3 |
| 20260503041004 | 54 | 84 | 1.7 | 1.7 | 0.00 | 0.00 | 0.00 | 99 | 1018.3 |
| 20260503040505 | 54 | 81 | 0.9 | 1.7 | 0.00 | 0.00 | 0.00 | 99 | 1018.3 |
| 20260503040006 | 54 | 78 | 0.9 | 1.7 | 0.00 | 0.00 | 0.00 | 99 | 1018.3 |
| 20260503035504 | 54 | 81 | 0.9 | 1.7 | 0.00 | 0.00 | 0.00 | 99 | 1018.3 |
| 20260503035004 | 54 | 0 | 0.0 | 0.0 | 0.00 | 0.00 | 0.00 | 99 | 1018.3 |
| 20260503034504 | 54 | 0 | 0.0 | 0.0 | 0.00 | 0.00 | 0.00 | 99 | 1018.3 |
| 20260503034004 | 54 | 0 | 0.0 | 0.0 | 0.00 | 0.00 | 0.00 | 99 | 1018.3 |